TimeCET,TemperatureF,Dew PointF,Humidity,Sea Level PressureIn,VisibilityMPH,Wind Direction,Wind SpeedMPH,Gust SpeedMPH,PrecipitationIn,Events,Conditions,WindDirDegrees,DateUTC
12:00 AM,41.0,30.2,65,30.01,6.2,NNW,11.5,-,N/A,,Mostly Cloudy,330,2013-02-25 23:00:00
12:30 AM,41.0,30.2,65,30.04,6.2,NNW,9.2,-,N/A,,Mostly Cloudy,340,2013-02-25 23:30:00
1:00 AM,43,28,44,30.04,19,North,5.8,,,,Mostly Cloudy,10,2013-02-26 00:00:00
1:00 AM,42.8,28.4,57,30.04,6.2,ENE,6.9,-,N/A,,Mostly Cloudy,60,2013-02-26 00:00:00
1:30 AM,41.0,28.4,61,30.04,6.2,NNW,10.4,-,N/A,,Mostly Cloudy,330,2013-02-26 00:30:00
2:00 AM,41.0,28.4,61,30.04,6.2,NNW,9.2,-,N/A,,Mostly Cloudy,330,2013-02-26 01:00:00
2:30 AM,41.0,28.4,61,30.04,6.2,NNW,10.4,-,N/A,,Mostly Cloudy,330,2013-02-26 01:30:00
3:00 AM,41.0,28.4,61,30.04,6.2,NNW,10.4,-,N/A,,Mostly Cloudy,330,2013-02-26 02:00:00
3:30 AM,41.0,26.6,57,30.04,6.2,NNW,10.4,-,N/A,,Mostly Cloudy,330,2013-02-26 02:30:00
4:00 AM,41.0,26.6,57,30.04,6.2,NNW,10.4,-,N/A,,Mostly Cloudy,330,2013-02-26 03:00:00
4:30 AM,41.0,26.6,57,30.04,6.2,NNW,10.4,-,N/A,,Mostly Cloudy,330,2013-02-26 03:30:00
5:00 AM,41.0,26.6,57,30.04,6.2,NNW,9.2,-,N/A,,Mostly Cloudy,330,2013-02-26 04:00:00
5:30 AM,41.0,26.6,57,30.04,6.2,NNW,11.5,-,N/A,,Mostly Cloudy,330,2013-02-26 04:30:00
6:00 AM,41.0,26.6,57,30.04,6.2,NNW,9.2,-,N/A,,Mostly Cloudy,330,2013-02-26 05:00:00
6:30 AM,41.0,26.6,57,30.04,6.2,NNW,9.2,-,N/A,,Mostly Cloudy,330,2013-02-26 05:30:00
7:00 AM,41,26,43,30.06,25,NNW,11.5,,,,Mostly Cloudy,330,2013-02-26 06:00:00
7:00 AM,41.0,26.6,57,30.04,6.2,NNW,12.7,-,N/A,,Mostly Cloudy,330,2013-02-26 06:00:00
7:30 AM,46.4,30.2,53,30.04,6.2,ENE,12.7,-,N/A,,Mostly Cloudy,60,2013-02-26 06:30:00
8:00 AM,41.0,26.6,57,30.06,6.2,NW,12.7,-,N/A,,Mostly Cloudy,320,2013-02-26 07:00:00
8:30 AM,41.0,24.8,53,30.06,6.2,NNW,11.5,-,N/A,,Mostly Cloudy,330,2013-02-26 07:30:00
9:00 AM,42.8,24.8,49,30.06,6.2,NNW,11.5,-,N/A,,Mostly Cloudy,330,2013-02-26 08:00:00
9:30 AM,42.8,26.6,53,30.06,6.2,NW,6.9,-,N/A,,Mostly Cloudy,320,2013-02-26 08:30:00
10:00 AM,50.0,32.0,50,30.09,6.2,ENE,20.7,-,N/A,,Mostly Cloudy,60,2013-02-26 09:00:00
10:30 AM,48.2,28.4,46,30.09,6.2,NE,12.7,-,N/A,,Mostly Cloudy,40,2013-02-26 09:30:00
11:00 AM,50.0,33.8,54,30.09,6.2,East,24.2,-,N/A,,Mostly Cloudy,90,2013-02-26 10:00:00
11:30 AM,50.0,28.4,43,30.09,6.2,ENE,18.4,-,N/A,,Mostly Cloudy,70,2013-02-26 10:30:00
12:00 PM,51.8,28.4,41,30.09,6.2,NE,16.1,-,N/A,,Partly Cloudy,50,2013-02-26 11:00:00
12:30 PM,53.6,30.2,41,30.09,6.2,NE,16.1,-,N/A,,Scattered Clouds,40,2013-02-26 11:30:00
1:00 PM,53,29,27,30.11,19,NNE,11.5,,,,Partly Cloudy,20,2013-02-26 12:00:00
1:00 PM,53.6,28.4,38,30.09,6.2,NNE,12.7,-,N/A,,Scattered Clouds,30,2013-02-26 12:00:00
1:30 PM,51.8,32.0,47,30.09,6.2,East,11.5,-,N/A,,Scattered Clouds,80,2013-02-26 12:30:00
2:00 PM,51.8,33.8,50,30.06,6.2,East,17.3,-,N/A,,Scattered Clouds,100,2013-02-26 13:00:00
2:30 PM,51.8,32.0,47,30.06,6.2,East,21.9,-,N/A,,Scattered Clouds,100,2013-02-26 13:30:00
3:00 PM,51.8,33.8,50,30.06,6.2,East,20.7,-,N/A,,Scattered Clouds,100,2013-02-26 14:00:00
3:30 PM,51.8,33.8,50,30.06,6.2,East,24.2,-,N/A,,Scattered Clouds,100,2013-02-26 14:30:00
4:00 PM,53.6,33.8,47,30.06,6.2,ESE,23.0,-,N/A,,Scattered Clouds,110,2013-02-26 15:00:00
4:30 PM,53.6,33.8,47,30.06,6.2,East,19.6,-,N/A,,Scattered Clouds,100,2013-02-26 15:30:00
5:00 PM,51.8,33.8,50,30.06,6.2,ESE,19.6,-,N/A,,Partly Cloudy,110,2013-02-26 16:00:00
5:30 PM,51.8,33.8,50,30.09,6.2,ESE,18.4,-,N/A,,Partly Cloudy,110,2013-02-26 16:30:00
6:00 PM,51.8,33.8,50,30.09,6.2,ESE,18.4,-,N/A,,Partly Cloudy,110,2013-02-26 17:00:00
6:30 PM,51.8,35.6,54,30.09,6.2,ESE,17.3,-,N/A,,Partly Cloudy,110,2013-02-26 17:30:00
7:00 PM,52,32,34,30.14,19,East,12.7,,,,Partly Cloudy,100,2013-02-26 18:00:00
7:00 PM,51.8,32.0,47,30.12,6.2,East,13.8,-,N/A,,Scattered Clouds,100,2013-02-26 18:00:00
7:30 PM,51.8,33.8,50,30.12,6.2,East,12.7,-,N/A,,Scattered Clouds,100,2013-02-26 18:30:00
8:00 PM,51.8,32.0,47,30.15,6.2,ESE,12.7,-,N/A,,Mostly Cloudy,110,2013-02-26 19:00:00
8:30 PM,50.0,30.2,47,30.15,6.2,Variable,5.8,-,N/A,,Mostly Cloudy,0,2013-02-26 19:30:00
9:00 PM,44.6,32.0,61,30.15,6.2,NW,8.1,-,N/A,,Scattered Clouds,320,2013-02-26 20:00:00
9:30 PM,44.6,32.0,61,30.15,6.2,NNW,9.2,-,N/A,,Partly Cloudy,330,2013-02-26 20:30:00
10:00 PM,42.8,32.0,66,30.15,6.2,NNW,10.4,-,N/A,,Partly Cloudy,340,2013-02-26 21:00:00
10:30 PM,42.8,30.2,61,30.15,-9999.0,NNW,9.2,-,N/A,,Clear,340,2013-02-26 21:30:00
11:00 PM,42.8,30.2,61,30.15,-9999.0,NNW,10.4,-,N/A,,Clear,340,2013-02-26 22:00:00
11:30 PM,42.8,30.2,61,30.15,-9999.0,NNW,9.2,-,N/A,,Clear,330,2013-02-26 22:30:00